Sheldon, IA

10:57 PM CDT on September 20, 2017 (GMT -0500)
Sheldon Municipal

Weather History for KSHL - October, 2012

Change the Weather History Date:

Monday, October 8, 2012

  Actual Average Record
Temperature  
Mean Temperature 55 °F -  
Max Temperature 71 °F 62 °F 140 °F (1997)
Min Temperature 39 °F 39 °F 14 °F (2000)
Degree Days  
Heating Degree Days 10    
Growing Degree Days 5 (Base 50)    
Moisture  
Dew Point 32 °F    
Average Humidity 47    
Maximum Humidity 88    
Minimum Humidity 17    
Precipitation  
Precipitation 0.00 in - - ()
Sea Level Pressure  
Sea Level Pressure 29.77 in    
Wind  
Wind Speed 14 mph (SW)    
Max Wind Speed 32 mph    
Max Gust Speed 34 mph    
Visibility 10 miles    
Events      
Averages and records for this station are not official NWS values.
T = Trace of Precipitation, MM = Missing Value Source: NWS Daily Summary

Daily Weather History Graph

Daily Weather History Graph

Search for Another Location

Airport or City:

Trip Planner

Search our weather history database for the weather conditions in past years. The results will help you decide how hot, cold, wet, or windy it might be!

Date:

Astronomy

Oct. 08, 2012 Rise Set
Actual Time 7:29 AM CDT 6:51 PM CDT
Civil Twilight 7:00 AM CDT 7:19 PM CDT
Nautical Twilight 6:27 AM CDT 7:52 PM CDT
Astronomical Twilight 5:54 AM CDT 8:25 PM CDT
Moon No Moon Rise 2:51 PM CDT (10/8)
Length of Visible Light 12h 18m
Length of Day
11h 21m
Last Quarter, 46% of the Moon is Illuminated
Oct 8
Last Quarter
Oct 15
New
Oct 21
First Quarter
Oct 29
Full
Nov 6
Last Quarter

Hourly Weather History & Observations

Time (CDT) Temp. Windchill Dew Point Humidity Pressure Visibility Wind Dir Wind Speed Gust Speed Precip Events Conditions
12:15 AM 41.0 °F 33.9 °F 23.0 °F 49% 29.88 in 10.0 mi SSW 12.7 mph - N/A   Clear
12:35 AM 41.0 °F 33.5 °F 23.0 °F 49% 29.88 in 10.0 mi SSW 13.8 mph - N/A   Clear
12:55 AM 41.0 °F 33.9 °F 24.8 °F 53% 29.88 in 10.0 mi SSW 12.7 mph - N/A   Clear
1:15 AM 41.0 °F 34.3 °F 24.8 °F 53% 29.88 in 10.0 mi SSW 11.5 mph - N/A   Clear
1:35 AM 41.0 °F 33.9 °F 24.8 °F 53% 29.87 in 10.0 mi SSW 12.7 mph - N/A   Clear
1:55 AM 41.0 °F 33.5 °F 24.8 °F 53% 29.87 in 10.0 mi SSW 13.8 mph - N/A   Clear
2:15 AM 39.2 °F 32.0 °F 24.8 °F 56% 29.87 in 10.0 mi SSW 11.5 mph - N/A   Clear
2:35 AM 39.2 °F 31.6 °F 24.8 °F 56% 29.87 in 10.0 mi SSW 12.7 mph - N/A   Clear
2:55 AM 39.2 °F 31.6 °F 24.8 °F 56% 29.86 in 10.0 mi SSW 12.7 mph - N/A   Clear
3:15 AM 39.2 °F 31.2 °F 26.6 °F 61% 29.85 in 10.0 mi SSW 13.8 mph - N/A   Clear
3:35 AM 39.2 °F 30.8 °F 26.6 °F 61% 29.85 in 10.0 mi SSW 15.0 mph - N/A   Clear
3:55 AM 39.2 °F 32.0 °F 26.6 °F 61% 29.84 in 10.0 mi SSW 11.5 mph - N/A   Clear
4:15 AM 41.0 °F 33.9 °F 26.6 °F 57% 29.84 in 10.0 mi SSW 12.7 mph - N/A   Scattered Clouds
4:35 AM 41.0 °F 33.9 °F 28.4 °F 61% 29.84 in 10.0 mi SSW 12.7 mph - N/A   Mostly Cloudy
4:55 AM 41.0 °F 33.9 °F 28.4 °F 61% 29.83 in 10.0 mi SSW 12.7 mph - N/A   Overcast
5:35 AM 41.0 °F 33.1 °F 28.4 °F 61% 29.83 in 10.0 mi SSW 15.0 mph - N/A   Overcast
5:55 AM 42.8 °F 35.8 °F 30.2 °F 61% 29.83 in 10.0 mi SSW 13.8 mph - N/A   Overcast
6:15 AM 42.8 °F 35.1 °F 30.2 °F 61% 29.83 in 10.0 mi SSW 16.1 mph - N/A   Overcast
6:35 AM 42.8 °F 35.4 °F 30.2 °F 61% 29.82 in 10.0 mi SSW 15.0 mph - N/A   Overcast
6:55 AM 42.8 °F 35.4 °F 30.2 °F 61% 29.81 in 10.0 mi SSW 15.0 mph - N/A   Overcast
7:15 AM 42.8 °F 35.4 °F 30.2 °F 61% 29.81 in 10.0 mi SSW 15.0 mph - N/A   Overcast
7:35 AM 42.8 °F 36.2 °F 30.2 °F 61% 29.81 in 10.0 mi South 12.7 mph - N/A   Overcast
7:55 AM 42.8 °F 35.8 °F 30.2 °F 61% 29.81 in 10.0 mi SSW 13.8 mph - N/A   Mostly Cloudy
8:15 AM 42.8 °F 36.2 °F 30.2 °F 61% 29.80 in 10.0 mi South 12.7 mph - N/A   Mostly Cloudy
8:35 AM 44.6 °F 37.4 °F 30.2 °F 57% 29.80 in 10.0 mi South 16.1 mph - N/A   Clear
8:55 AM 44.6 °F 38.4 °F 30.2 °F 57% 29.80 in 10.0 mi South 12.7 mph - N/A   Clear
9:15 AM 46.4 °F 39.8 °F 30.2 °F 53% 29.79 in 10.0 mi South 16.1 mph - N/A   Clear
9:35 AM 48.2 °F - 30.2 °F 50% 29.79 in 10.0 mi SSW 13.8 mph 20.7 mph N/A   Clear
9:55 AM 48.2 °F - 30.2 °F 50% 29.78 in 10.0 mi South 15.0 mph - N/A   Clear
10:15 AM 50.0 °F - 30.2 °F 47% 29.77 in 10.0 mi SSW 16.1 mph - N/A   Clear
10:35 AM 53.6 °F - 30.2 °F 41% 29.77 in 10.0 mi SSW 19.6 mph - N/A   Clear
10:55 AM 55.4 °F - 30.2 °F 38% 29.77 in 10.0 mi SSW 18.4 mph - N/A   Clear
11:15 AM 55.4 °F - 28.4 °F 36% 29.76 in 10.0 mi SSW 17.3 mph 24.2 mph N/A   Clear
11:35 AM 57.2 °F - 28.4 °F 33% 29.75 in 10.0 mi SSW 21.9 mph - N/A   Clear
11:55 AM 57.2 °F - 28.4 °F 33% 29.74 in 10.0 mi SSW 17.3 mph 24.2 mph N/A   Clear
12:15 PM 60.8 °F - 28.4 °F 29% 29.73 in 10.0 mi SSW 18.4 mph 25.3 mph N/A   Scattered Clouds
12:35 PM 62.6 °F - 26.6 °F 26% 29.73 in 10.0 mi SSW 17.3 mph 25.3 mph N/A   Scattered Clouds
12:55 PM 62.6 °F - 26.6 °F 26% 29.72 in 10.0 mi SSW 19.6 mph 25.3 mph N/A   Scattered Clouds
1:15 PM 66.2 °F - 24.8 °F 21% 29.71 in 10.0 mi SSW 19.6 mph 27.6 mph N/A   Partly Cloudy
1:35 PM 66.2 °F - 24.8 °F 21% 29.70 in 10.0 mi SSW 19.6 mph 31.1 mph N/A   Partly Cloudy
1:55 PM 68.0 °F - 24.8 °F 20% 29.68 in 10.0 mi SSW 19.6 mph 29.9 mph N/A   Clear
2:15 PM 69.8 °F - 24.8 °F 18% 29.67 in 10.0 mi SW 24.2 mph 34.5 mph N/A   Clear
2:35 PM 71.6 °F - 24.8 °F 17% 29.67 in 10.0 mi SW 24.2 mph 33.4 mph N/A   Clear
2:55 PM 71.6 °F - 24.8 °F 17% 29.67 in 10.0 mi SW 24.2 mph 31.1 mph N/A   Partly Cloudy
3:15 PM 71.6 °F - 24.8 °F 17% 29.67 in 10.0 mi WSW 20.7 mph 32.2 mph N/A   Mostly Cloudy
3:35 PM 71.6 °F - 26.6 °F 19% 29.67 in 10.0 mi West 23.0 mph 33.4 mph N/A   Scattered Clouds
3:55 PM 71.6 °F - 28.4 °F 20% 29.67 in 10.0 mi West 32.2 mph - N/A   Partly Cloudy
4:15 PM 71.6 °F - 30.2 °F 22% 29.67 in 10.0 mi West 21.9 mph 28.8 mph N/A   Clear
4:35 PM 69.8 °F - 32.0 °F 25% 29.67 in 10.0 mi WSW 18.4 mph 25.3 mph N/A   Clear
4:55 PM 69.8 °F - 33.8 °F 27% 29.68 in 9.0 mi West 21.9 mph - N/A   Clear
5:15 PM 69.8 °F - 35.6 °F 28% 29.68 in 9.0 mi West 20.7 mph - N/A   Clear
5:35 PM 68.0 °F - 35.6 °F 30% 29.69 in 8.0 mi West 17.3 mph 24.2 mph N/A   Partly Cloudy
5:55 PM 68.0 °F - 35.6 °F 30% 29.69 in 7.0 mi WNW 16.1 mph - N/A   Mostly Cloudy
6:15 PM 66.2 °F - 37.4 °F 35% 29.70 in 8.0 mi WNW 12.7 mph 19.6 mph N/A   Mostly Cloudy
6:35 PM 64.4 °F - 37.4 °F 37% 29.71 in 8.0 mi NW 11.5 mph - N/A   Overcast
6:55 PM 64.4 °F - 39.2 °F 40% 29.72 in 8.0 mi WNW 12.7 mph - N/A   Overcast
7:15 PM 64.4 °F - 39.2 °F 40% 29.73 in 9.0 mi WNW 9.2 mph - N/A   Overcast
7:35 PM 62.6 °F - 39.2 °F 42% 29.74 in 10.0 mi WNW 6.9 mph - N/A   Overcast
7:55 PM 62.6 °F - 39.2 °F 42% 29.76 in 10.0 mi NW 11.5 mph 21.9 mph N/A   Overcast
8:15 PM 60.8 °F - 41.0 °F 48% 29.77 in 10.0 mi NW 11.5 mph - N/A   Mostly Cloudy
8:35 PM 59.0 °F - 41.0 °F 51% 29.78 in 10.0 mi NNW 11.5 mph 19.6 mph N/A   Mostly Cloudy
8:55 PM 57.2 °F - 42.8 °F 59% 29.78 in 9.0 mi NW 9.2 mph 17.3 mph N/A   Light Drizzle
9:15 PM 55.4 °F - 44.6 °F 67% 29.79 in 10.0 mi NW 8.1 mph - N/A   Light Drizzle
9:35 PM 55.4 °F - 44.6 °F 67% 29.79 in 10.0 mi NNW 8.1 mph - N/A   Mostly Cloudy
9:55 PM 53.6 °F - 46.4 °F 77% 29.80 in 9.0 mi NNW 6.9 mph - N/A   Light Drizzle
10:15 PM 51.8 °F - 46.4 °F 82% 29.79 in 10.0 mi North 4.6 mph - N/A   Light Drizzle
10:55 PM 51.8 °F - 48.2 °F 88% 29.79 in 10.0 mi SSE 5.8 mph - N/A   Overcast
11:15 PM 51.8 °F - 48.2 °F 88% 29.79 in 10.0 mi South 6.9 mph - N/A   Overcast
11:35 PM 51.8 °F - 46.4 °F 82% 29.79 in 10.0 mi South 6.9 mph - N/A   Overcast
11:55 PM 51.8 °F - 46.4 °F 82% 29.78 in 10.0 mi South 4.6 mph - N/A   Overcast